FW0958 Weather Reports


Display with metric or nautical units.
time (UTC)temp
F
wind
direction
speed
MPH
gust
MPH
rain 1hr
in
rain 24hr
in
rain mn
in
humidity
%
barometer
mb
20260505204422 67 329 2.0 8.0 0.00 0.39 0.37 64 1015.0
20260505204417 67 12 1.0 8.0 0.00 0.39 0.37 62 1015.0
20260505203416 68 305 3.0 11.0 0.00 0.39 0.37 59 1015.0
20260505202922 70 311 3.0 10.0 0.00 0.39 0.37 56 1015.0
20260505202916 69 349 3.0 11.0 0.00 0.39 0.37 57 1015.1
20260505201923 69 328 3.0 10.0 0.00 0.39 0.37 58 1015.0
20260505201918 70 283 2.0 10.0 0.00 0.39 0.37 58 1015.1
20260505200919 69 288 3.0 9.0 0.00 0.39 0.37 58 1015.0
20260505200416 69 336 3.0 8.0 0.00 0.39 0.37 62 1015.2
20260505195917 68 39 3.0 11.0 0.00 0.39 0.37 62 1015.2
20260505195414 67 23 3.0 11.0 0.00 0.39 0.37 61 1015.3
20260505194915 67 343 2.0 9.0 0.00 0.39 0.37 59 1015.2
20260505194415 67 313 3.0 9.0 0.00 0.39 0.37 60 1015.2
20260505193918 68 4 2.0 9.0 0.00 0.39 0.37 61 1015.4
20260505193414 68 323 2.0 10.0 0.00 0.39 0.37 60 1015.3
20260505192914 68 330 2.0 10.0 0.00 0.39 0.37 61 1015.2
20260505192416 67 310 2.0 9.0 0.00 0.39 0.37 62 1015.3
20260505191920 65 353 4.0 11.0 0.00 0.39 0.37 63 1015.4
20260505191914 66 5 4.0 11.0 0.00 0.39 0.37 62 1015.4
20260505190913 67 29 3.0 9.0 0.00 0.39 0.37 62 1015.4
20260505190417 66 319 3.0 10.0 0.00 0.39 0.37 66 1015.3
20260505190411 67 51 3.0 10.0 0.00 0.39 0.37 62 1015.4
20260505185412 65 331 4.0 10.0 0.00 0.39 0.37 65 1015.3
20260505184913 65 17 4.0 11.0 0.00 0.39 0.37 68 1015.4
20260505184413 65 47 2.0 11.0 0.00 0.39 0.37 67 1015.4
20260505183912 64 69 0.0 9.0 0.00 0.39 0.37 68 1015.5
20260505183413 64 333 0.0 1.0 0.00 0.39 0.37 73 1015.5
20260505182913 63 320 0.0 1.0 0.00 0.39 0.37 74 1015.5
20260505182413 62 350 0.0 1.0 0.00 0.39 0.37 74 1015.5
20260505181913 62 313 0.0 8.0 0.00 0.39 0.37 76 1015.6
20260505181410 62 347 0.0 8.0 0.00 0.39 0.37 74 1015.4
20260505180909 63 351 0.0 2.0 0.00 0.39 0.37 75 1015.3
20260505180410 63 327 0.0 0.0 0.00 0.39 0.37 77 1015.4
20260505175911 62 39 0.0 0.0 0.00 0.39 0.37 77 1015.3
20260505175410 62 309 0.0 5.0 0.00 0.39 0.37 78 1015.2
20260505174909 62 333 0.0 5.0 0.00 0.39 0.37 79 1015.2
20260505174417 61 322 0.0 7.0 0.00 0.39 0.37 82 1015.2
20260505174411 62 313 0.0 4.0 0.00 0.39 0.37 80 1015.3
20260505173412 61 334 0.0 7.0 0.00 0.39 0.37 85 1015.1
20260505172910 60 346 0.0 3.0 0.00 0.39 0.37 86 1015.1
20260505172413 60 352 0.0 2.0 0.01 0.39 0.37 88 1015.0
20260505172408 60 340 0.0 3.0 0.01 0.39 0.37 87 1015.0
20260505172027 60 312 0.0 2.0 0.01 0.39 0.37 89 1015.0
20260505171527 60 353 0.0 3.0 0.01 0.39 0.37 89 1015.1
20260505170408 60 340 0.0 4.0 0.01 0.39 0.37 89 1014.9
20260505165914 60 280 0.0 1.0 0.01 0.39 0.37 91 1014.9
20260505165908 60 289 0.0 4.0 0.01 0.39 0.37 90 1014.8
20260505164908 60 277 0.0 0.0 0.01 0.39 0.37 91 1014.9
20260505164413 59 357 0.0 2.0 0.02 0.39 0.37 92 1014.7
20260505164407 60 277 0.0 0.0 0.02 0.39 0.37 92 1014.8
20260505163406 59 3 0.0 2.0 0.02 0.39 0.37 93 1014.8
20260505162906 58 357 0.0 2.0 0.03 0.39 0.37 93 1014.7
20260505162406 58 357 0.0 2.0 0.02 0.38 0.36 93 1014.7
20260505161906 58 357 0.0 2.0 0.02 0.38 0.36 93 1014.7
20260505161412 57 309 0.0 1.0 0.03 0.38 0.36 94 1014.4
20260505161407 58 45 0.0 0.0 0.02 0.38 0.36 94 1014.6
20260505160907 57 309 0.0 1.0 0.02 0.38 0.36 94 1014.5
20260505152405 57 305 0.0 2.0 0.03 0.36 0.34 95 1014.2
20260505151907 57 305 1.0 3.0 0.04 0.36 0.34 94 1014.1
20260505151411 57 305 1.0 3.0 0.04 0.36 0.34 95 1014.1
20260505151404 57 309 1.0 3.0 0.04 0.36 0.34 95 1013.9
20260505151028 56 308 0.0 3.0 0.04 0.35 0.33 95 1013.9
20260505151024 57 308 1.0 3.0 0.03 0.35 0.33 95 1014.0
20260505140400 55 311 0.0 1.0 0.05 0.32 0.30 95 1013.7
20260505125016 56 308 0.0 2.0 0.02 0.26 0.24 94 1013.2
20260505123859 56 308 0.0 2.0 0.01 0.25 0.23 94 1013.1
20260505123357 56 308 0.0 0.0 0.01 0.25 0.23 95 1013.2
20260505122855 56 308 0.0 0.0 0.00 0.24 0.22 94 1013.1
20260505122356 55 308 0.0 0.0 0.00 0.24 0.22 94 1013.0
20260505121900 56 308 0.0 0.0 0.01 0.24 0.22 94 1012.8
20260505121856 55 308 0.0 0.0 0.01 0.24 0.22 94 1012.9
20260505120856 55 308 0.0 0.0 0.01 0.24 0.22 94 1012.9
20260505120354 55 308 0.0 0.0 0.02 0.24 0.22 94 1012.9
20260505115855 55 308 0.0 0.0 0.02 0.24 0.22 94 1012.9
20260505115355 55 308 0.0 0.0 0.02 0.24 0.22 94 1012.9
20260505114855 55 308 0.0 0.0 0.02 0.24 0.22 94 1013.0
20260505114355 55 308 0.0 0.0 0.03 0.24 0.22 94 1013.0
20260505113854 55 308 0.0 0.0 0.03 0.24 0.22 94 1012.9
20260505113358 55 308 0.0 0.0 0.04 0.24 0.22 94 1012.9
20260505113354 55 308 0.0 0.0 0.04 0.24 0.22 94 1012.9
20260505113013 55 308 0.0 0.0 0.05 0.24 0.22 94 1013.1
20260505111853 55 308 0.0 0.0 0.04 0.23 0.21 94 1013.1
20260505111353 56 308 0.0 0.0 0.05 0.23 0.21 94 1013.0
20260505110854 56 308 0.0 0.0 0.05 0.23 0.21 94 1013.1
20260505110352 56 308 0.0 2.0 0.05 0.22 0.20 94 1013.0
20260505101852 56 307 1.0 3.0 0.09 0.19 0.17 93 1013.0
20260505101352 56 306 0.0 2.0 0.09 0.18 0.16 93 1013.0
20260505100849 56 306 0.0 3.0 0.10 0.18 0.16 93 1013.0
20260505100354 56 306 0.0 3.0 0.10 0.16 0.15 93 1013.1
20260505100350 56 307 0.0 3.0 0.10 0.17 0.15 93 1013.1
20260505095348 56 293 0.0 1.0 0.11 0.16 0.14 93 1013.1
20260505094847 56 293 0.0 2.0 0.10 0.15 0.13 93 1013.2
20260505094346 56 293 1.0 2.0 0.09 0.14 0.12 93 1013.2
20260505093848 56 293 1.0 3.0 0.09 0.14 0.12 93 1013.3
20260505093352 56 293 2.0 7.0 0.07 0.12 0.10 93 1013.4
20260505093348 56 293 1.0 5.0 0.07 0.12 0.11 93 1013.3
20260505093006 56 344 2.0 7.0 0.06 0.11 0.09 93 1013.4
20260505091848 57 288 2.0 6.0 0.05 0.10 0.08 92 1013.4
20260505091348 57 280 0.0 5.0 0.04 0.09 0.07 93 1013.6
20260505090847 57 93 0.0 0.0 0.03 0.08 0.06 93 1013.4
20260505090348 57 93 0.0 0.0 0.02 0.07 0.05 92 1013.5
20260505085847 57 93 0.0 2.0 0.02 0.06 0.04 92 1013.5
20260505085353 57 103 0.0 2.0 0.01 0.05 0.03 92 1013.4
20260505085348 57 93 0.0 2.0 0.01 0.05 0.03 93 1013.5
20260505085004 57 103 0.0 2.0 0.01 0.05 0.03 92 1013.4
20260505083846 57 45 0.0 0.0 0.01 0.05 0.03 92 1013.4
20260505083348 57 45 0.0 0.0 0.01 0.06 0.03 92 1013.4
20260505082848 57 45 0.0 0.0 0.01 0.07 0.03 92 1013.6
20260505082347 57 45 0.0 0.0 0.02 0.07 0.03 92 1013.8
20260505081852 57 45 0.0 0.0 0.03 0.07 0.03 92 1013.8
20260505081846 57 45 0.0 0.0 0.02 0.07 0.03 92 1013.8
20260505080847 57 45 0.0 0.0 0.03 0.07 0.03 92 1014.0
20260505080347 57 45 0.0 0.0 0.03 0.07 0.03 92 1014.0
20260505075852 57 45 0.0 0.0 0.02 0.06 0.02 92 1014.1
20260505075847 57 45 0.0 0.0 0.02 0.06 0.02 92 1014.0
20260505074847 58 45 0.0 0.0 0.02 0.06 0.02 92 1014.0
20260505074348 58 45 0.0 0.0 0.02 0.06 0.02 92 1014.1
20260505073847 58 45 0.0 0.0 0.02 0.06 0.02 91 1014.1
20260505073351 58 45 0.0 0.0 0.02 0.06 0.02 91 1014.1
20260505073347 58 45 0.0 0.0 0.02 0.06 0.02 91 1014.2
20260505072347 58 45 0.0 0.0 0.01 0.05 0.02 92 1014.2
20260505071846 57 45 0.0 0.0 0.01 0.05 0.01 91 1014.4
20260505071344 58 45 0.0 0.0 0.00 0.04 0.00 91 1014.2
20260505070845 57 45 0.0 0.0 0.00 0.04 0.00 91 1014.4
20260505070346 57 45 0.0 0.0 0.00 0.04 0.00 91 1014.4
20260505065843 57 45 0.0 0.0 0.00 0.04 0.04 91 1014.2
20260505065343 57 45 0.0 0.0 0.00 0.04 0.04 91 1014.2
20260505064842 57 45 0.0 0.0 0.00 0.04 0.04 90 1014.4
20260505064347 57 45 0.0 0.0 0.00 0.04 0.04 90 1014.6
20260505064342 57 45 0.0 0.0 0.00 0.04 0.04 90 1014.4
20260505063342 57 45 0.0 0.0 0.00 0.04 0.04 90 1014.5
20260505062844 57 45 0.0 0.0 0.00 0.04 0.04 90 1014.4
20260505062342 57 45 0.0 0.0 0.00 0.04 0.04 90 1014.6
20260505061847 57 45 0.0 3.0 0.00 0.04 0.04 89 1014.5
20260505061841 57 45 0.0 1.0 0.00 0.04 0.04 90 1014.6
20260505061500 57 45 0.0 3.0 0.01 0.04 0.04 89 1014.5
20260505060342 57 39 0.0 2.0 0.01 0.04 0.04 89 1014.7
20260505055843 57 39 0.0 0.0 0.02 0.04 0.04 89 1014.6
20260505055342 57 39 0.0 1.0 0.02 0.04 0.04 89 1014.8
20260505054842 58 39 0.0 3.0 0.02 0.04 0.04 88 1014.8
20260505054343 58 39 0.0 3.0 0.02 0.04 0.04 88 1014.9
20260505053841 58 34 0.0 3.0 0.02 0.04 0.04 87 1014.9
20260505053341 58 25 0.0 3.0 0.02 0.04 0.04 87 1015.0
20260505052842 59 29 0.0 3.0 0.02 0.04 0.04 86 1014.9
20260505052342 59 39 0.0 4.0 0.02 0.04 0.04 86 1015.0
20260505051842 59 39 1.0 4.0 0.02 0.04 0.04 85 1015.1
20260505051344 60 343 1.0 7.0 0.02 0.04 0.04 84 1015.0
20260505050843 60 300 2.0 8.0 0.01 0.03 0.03 83 1015.1
20260505050348 61 44 1.0 8.0 0.00 0.02 0.02 78 1015.2
20260505050342 61 303 2.0 8.0 0.01 0.03 0.03 81 1015.1
20260505041335 60 309 0.0 0.0 0.00 0.02 0.02 79 1015.1
20260505040835 60 309 0.0 0.0 0.00 0.02 0.02 79 1015.2
20260505040337 60 309 0.0 0.0 0.00 0.02 0.02 79 1015.0
20260505035835 60 309 0.0 0.0 0.00 0.02 0.02 79 1015.0
20260505035335 60 309 0.0 0.0 0.00 0.02 0.02 79 1015.1
20260505034837 60 309 0.0 0.0 0.00 0.02 0.02 79 1015.1
20260505034340 60 309 0.0 1.0 0.00 0.02 0.02 79 1015.0
20260505034336 60 309 0.0 0.0 0.00 0.02 0.02 79 1015.1
20260505033335 60 331 0.0 2.0 0.00 0.02 0.02 79 1015.0
20260505032840 60 312 0.0 1.0 0.00 0.02 0.02 79 1014.9
20260505032836 60 331 0.0 2.0 0.00 0.02 0.02 79 1014.9
20260505031839 60 336 0.0 4.0 0.00 0.02 0.02 79 1014.8
20260505031834 60 312 0.0 4.0 0.00 0.02 0.02 79 1014.8
20260505030839 61 324 1.0 8.0 0.00 0.02 0.02 78 1014.5
20260505030833 60 342 0.0 4.0 0.00 0.02 0.02 78 1014.8
20260505030333 60 11 1.0 8.0 0.00 0.02 0.02 78 1014.7
20260505025335 61 320 1.0 5.0 0.00 0.02 0.02 77 1014.5
20260505024833 61 278 1.0 5.0 0.00 0.02 0.02 77 1014.4
20260505024335 61 357 1.0 7.0 0.00 0.02 0.02 77 1014.5
20260505023834 61 345 1.0 7.0 0.00 0.02 0.02 77 1014.4
20260505023333 61 343 0.0 4.0 0.00 0.02 0.02 76 1014.5
20260505022832 61 9 1.0 7.0 0.00 0.02 0.02 76 1014.5
20260505022331 62 328 1.0 7.0 0.00 0.02 0.02 76 1014.5
20260505021832 62 343 1.0 7.0 0.00 0.02 0.02 75 1014.6
20260505021338 62 357 2.0 7.0 0.00 0.02 0.02 74 1014.7
20260505021332 62 320 2.0 7.0 0.00 0.02 0.02 75 1014.6
20260505020950 62 330 2.0 8.0 0.00 0.02 0.02 73 1014.6
20260505015831 63 342 2.0 8.0 0.00 0.02 0.02 72 1014.6
20260505015331 63 322 1.0 8.0 0.00 0.02 0.02 72 1014.4
20260505014835 63 288 2.0 9.0 0.00 0.02 0.02 71 1014.5
20260505014830 63 14 3.0 11.0 0.00 0.02 0.02 70 1014.4
20260505013834 64 356 1.0 8.0 0.00 0.02 0.02 69 1014.7
20260505013828 64 283 2.0 11.0 0.00 0.02 0.02 69 1014.7
20260505012830 65 332 1.0 8.0 0.00 0.02 0.02 68 1014.6
20260505012328 65 357 1.0 8.0 0.00 0.02 0.02 66 1014.5
20260505011832 66 330 1.0 11.0 0.00 0.02 0.02 67 1014.7
20260505011330 66 39 2.0 11.0 0.00 0.02 0.02 67 1014.7
20260505010830 65 326 3.0 11.0 0.00 0.02 0.02 65 1014.7
20260505010330 66 330 4.0 11.0 0.00 0.02 0.02 66 1014.7
20260505005827 66 340 4.0 11.0 0.00 0.02 0.02 66 1014.8
20260505005327 66 311 4.0 10.0 0.00 0.02 0.02 65 1014.8
20260505004829 66 56 4.0 11.0 0.00 0.02 0.02 65 1014.8
20260505004327 66 313 4.0 12.0 0.00 0.02 0.02 65 1014.7
20260505003826 66 307 3.0 12.0 0.00 0.02 0.02 64 1014.7
20260505003328 67 320 3.0 8.0 0.00 0.02 0.02 62 1014.9
20260505002829 67 350 2.0 8.0 0.00 0.02 0.02 62 1014.8
20260505002327 67 328 2.0 12.0 0.00 0.02 0.02 62 1014.7
20260505001827 67 340 3.0 12.0 0.00 0.02 0.02 61 1014.7
20260505001325 67 318 2.0 11.0 0.00 0.02 0.02 60 1014.8
20260505000826 68 345 3.0 10.0 0.00 0.02 0.02 60 1014.8
20260505000331 68 295 4.0 11.0 0.00 0.02 0.02 61 1014.8
20260505000325 68 270 3.0 10.0 0.00 0.02 0.02 60 1014.8
20260504235326 67 322 4.0 11.0 0.00 0.02 0.02 62 1014.8
20260504234826 67 34 4.0 10.0 0.00 0.02 0.02 60 1014.9
20260504234325 68 341 3.0 10.0 0.00 0.02 0.02 60 1014.8
20260504233825 68 7 3.0 10.0 0.00 0.02 0.02 60 1014.7
20260504233326 69 290 4.0 13.0 0.00 0.02 0.02 59 1014.9
20260504232826 69 283 4.0 13.0 0.00 0.02 0.02 59 1014.8
20260504232326 69 306 3.0 11.0 0.00 0.02 0.02 58 1014.7
20260504231826 69 12 5.0 12.0 0.00 0.02 0.02 56 1014.7
20260504231326 69 350 4.0 12.0 0.00 0.02 0.02 55 1014.7
20260504230826 70 309 4.0 12.0 0.00 0.02 0.02 56 1014.7
20260504230330 70 306 3.0 11.0 0.00 0.02 0.02 58 1014.7
20260504230324 70 288 4.0 12.0 0.00 0.02 0.02 57 1014.7
20260504225326 70 342 3.0 11.0 0.00 0.02 0.02 59 1014.6
20260504224824 69 324 3.0 11.0 0.00 0.02 0.02 59 1014.5
20260504224331 69 338 3.0 11.0 0.00 0.02 0.02 59 1014.5
20260504224326 69 39 3.0 11.0 0.00 0.02 0.02 59 1014.7
20260504223325 69 339 3.0 10.0 0.00 0.02 0.02 59 1014.6
20260504222827 70 63 3.0 11.0 0.00 0.02 0.02 58 1014.7
20260504222324 70 4 3.0 12.0 0.00 0.02 0.02 59 1014.7
20260504221824 70 320 4.0 12.0 0.00 0.02 0.02 57 1014.7
20260504221324 70 291 4.0 15.0 0.00 0.02 0.02 57 1014.9
20260504220824 70 7 4.0 15.0 0.00 0.02 0.02 56 1014.9
20260504220324 70 332 4.0 16.0 0.00 0.02 0.02 55 1014.9
20260504215825 71 324 4.0 16.0 0.00 0.02 0.02 55 1015.0
20260504215324 71 334 4.0 13.0 0.00 0.02 0.02 54 1014.9
20260504214825 70 18 3.0 12.0 0.00 0.02 0.02 54 1015.0
20260504214325 70 340 3.0 10.0 0.00 0.02 0.02 54 1015.0
20260504213826 71 333 4.0 13.0 0.00 0.02 0.02 53 1015.2
20260504213324 71 344 4.0 13.0 0.00 0.02 0.02 53 1015.2
20260504212825 71 324 4.0 11.0 0.00 0.02 0.02 54 1015.0
20260504212323 71 307 3.0 11.0 0.00 0.02 0.02 53 1015.2
20260504211824 72 351 3.0 11.0 0.00 0.02 0.02 52 1015.3
20260504211322 72 9 4.0 16.0 0.00 0.02 0.02 53 1015.3
20260504210822 71 47 4.0 16.0 0.00 0.02 0.02 53 1015.2
20260504210324 71 335 4.0 13.0 0.00 0.02 0.02 54 1015.2
20260504205824 71 346 4.0 13.0 0.00 0.02 0.02 53 1015.4
20260504205327 71 43 3.0 9.0 0.00 0.02 0.02 53 1015.3
20260504205322 71 303 3.0 11.0 0.00 0.02 0.02 54 1015.2